sat.trackr.live / text

‹ back to catalog

STARLINK-34380

NORAD 64307 · 2025-123S

PAYLOAD ACTIVE UNKNOWN

§ Identity

Operator
Country
US
Launch date
2025-06-08
Launch site
AFWTR
Launch vehicle
Mass (kg)
RCS (m²)

Purposes: comms

External: N2YO · Heavens-Above · Gunter

§ Orbital elements

Epoch: 2026-09-20T17:36:28.879776Z

Period
94.14 min
Inclination
70.0001°
Eccentricity
0.0002438
Mean motion
15.29601720 rev/d
Perigee alt
475.3 km
Apogee alt
478.7 km
Semi-major
6,855.1 km
B*
5.9467e-4
RAAN
60.3111°
Arg perigee
271.7773°
Mean anomaly
88.3123°
Rev number
7,089

§ Raw data

STARLINK-343801 64307U 25123S   26263.73366759  .00017016  00000+0  59467-3 0  99962 64307  70.0001  60.3111 0002438 271.7773  88.3123 15.29601720 70895

JSON: /api/v1/satellites/64307 · /tle

For live sub-satellite position, see the globe view (requires WebGL).

§ Visibility from observer

Set your observer location to see the next 7 days of passes ≥ 10°. The values pass through the URL so the page stays shareable.

No JS? Fill the form by hand. The geolocation button needs JavaScript.